Tracking 27188 objects as of 2-Apr-2023
HD Live streaming from Space Station
objects crossing your sky now

STARLINK-1923

Track STARLINK-1923 now!
10-day predictions
STARLINK-1923 is classified as:


NORAD ID: 46754
Int'l Code: 2020-074R
Perigee: 553.4 km
Apogee: 555.3 km
Inclination: 53.1 °
Period: 95.6 minutes
Semi major axis: 6925 km
RCS: Unknown
Launch date: October 24, 2020
Source: United States (US)
Launch site: AIR FORCE EASTERN TEST RANGE (AFETR)
Your satellite tracking list
Your tracking list is empty




NASA's NSSDC Master Catalog

Two Line Element Set (TLE):
1 46754U 20074R   23091.31198013  .00002224  00000-0  16819-3 0  9998
2 46754  53.0529 100.1948 0001388  82.6872 277.4275 15.06392246134895
Source of the keplerian elements: AFSPC